Погода в Петровке

Украина / Одесская область     46°54′28″N   30°43′16″E
темп.,
°C
ветер,
м/с
пор.,
м/с
влажн.,
%
обл.,
%
осадки,
мм/ч
давл.,
гПа
погр.,
м
2 марта, вт
вт223:00+1с3681100 0.1 1032389
02:00+1ссз368394 0.1 1033241
05:00−1сз348677 0.0 103278
08:00+1зсз357966 0.0 1031232
11:00+5з456227 0.0 1030918
14:00+8з685920 0.0 1027852
17:00+8з6116369 0.0 1025788
20:00+5зсз5147646 0.0 1024390
3 марта, ср
ср323:00+4сз5147936 0.0 1024628
02:00+4с6107963 0.0 1026878
05:00+3ссз5117592 0.0 1027590
08:00+3ссз6117347 0.0 1029586
11:00+7ссз57580 0.0 1029996
14:00+9ссз55440 0.0 10291267
17:00+8сз245048 0.0 1028198
20:00+5зсз236375 0.0 102828
4 марта, чт
чт423:00+3зюз226514 0.0 102722
02:00+2юз33697 0.0 102636
05:00+1ююз34720 0.0 102362
08:00+4ююз59800 0.0 1022287
11:00+9юз610620 0.0 1019631
14:00+13юз79510 0.0 1017984
17:00+11юз495863 0.0 1014326
20:00+7ююз457632 0.0 101493
5 марта, пт
пт523:00+6юз348120 0.0 101450
02:00+5юз238218 0.0 101326
05:00+5ю228188 0.0 101222
08:00+6ю248294 0.0 1012103
11:00+11ююз455899 0.0 1011448
14:00+15з453967 0.0 1010975
17:00+13ссз36514 0.0 1010203
20:00+8ссв497323 0.0 1011282
6 марта, сб
сб623:00+6с3789100 0.0 1013246
02:00+5с4788100 0.0 1014414
05:00+3ссв81191100 0.5 1016516
08:00+2ссв81265100 0.7 1019871
11:00+3с81045100 0.0 10211278
14:00+3с7946100 0.0 10221500
17:00+2с6939100 0.0 10231794
20:000ссз365250 0.0 1026158